Walhalla, ND

1:01 PM CDT on May 20, 2018 (GMT -0500)
Walhalla

Weather History for K96D - February, 2014

Change the Weather History Date:

Thursday, February 6, 2014

  Actual Average (KGAF) Record (KGAF)
Temperature  
Mean Temperature -2 °F -  
Max Temperature 6 °F 19 °F 46 °F (1990)
Min Temperature -9 °F 0 °F -32 °F (1959)
Degree Days  
Heating Degree Days 66    
Moisture  
Dew Point -7 °F    
Average Humidity 69    
Maximum Humidity 78    
Minimum Humidity 61    
Precipitation  
Precipitation 0.00 in - - ()
Sea Level Pressure  
Sea Level Pressure 30.13 in    
Wind  
Wind Speed 12 mph (West)    
Max Wind Speed 26 mph    
Max Gust Speed 39 mph    
Visibility 10 miles    
Events Snow    
Averages and records for this station are not official NWS values.
T = Trace of Precipitation, MM = Missing Value Source: NWS Daily Summary

Daily Weather History Graph

Daily Weather History Graph

Search for Another Location

Airport or City:

Astronomy

Feb. 06, 2014 Rise Set
Actual Time 7:54 AM CST 5:37 PM CST
Civil Twilight 7:21 AM CST 6:10 PM CST
Nautical Twilight 6:43 AM CST 6:48 PM CST
Astronomical Twilight 6:06 AM CST 7:25 PM CST
Moon 11:08 AM CST (2/6) 1:11 AM CST (2/6)
Length of Visible Light 10h 49m
Length of Day
9h 42m
Waxing Crescent, 49% of the Moon is Illuminated
Feb 6
Waxing Crescent
Feb 6
First Quarter
Feb 14
Full
Feb 22
Last Quarter
Mar 1
New

Hourly Weather History & Observations

Time (CST) Temp. Windchill Dew Point Humidity Pressure Visibility Wind Dir Wind Speed Gust Speed Precip Events Conditions
12:15 AM -7.6 °F -24.6 °F -14.8 °F 71% 30.40 in 10.0 mi West 9.2 mph - N/A   Mostly Cloudy
12:35 AM -9.4 °F -26.8 °F -14.8 °F 77% 30.38 in 10.0 mi West 9.2 mph - N/A   Mostly Cloudy
12:55 AM -9.4 °F -25.6 °F -14.8 °F 77% 30.38 in - West 8.1 mph - N/A   Partly Cloudy
1:15 AM -9.4 °F -25.6 °F -16.6 °F 71% 30.36 in 10.0 mi West 8.1 mph - N/A   Clear
1:35 AM -7.6 °F -25.7 °F -14.8 °F 71% 30.35 in 10.0 mi West 10.4 mph - N/A   Clear
1:55 AM -7.6 °F -24.6 °F -14.8 °F 71% 30.34 in 10.0 mi West 9.2 mph - N/A   Clear
2:15 AM -7.6 °F -24.6 °F -14.8 °F 71% 30.33 in 10.0 mi West 9.2 mph - N/A   Clear
2:35 AM -7.6 °F -26.6 °F -14.8 °F 71% 30.32 in 10.0 mi West 11.5 mph 16.1 mph N/A   Clear
2:55 AM -7.6 °F -24.6 °F -14.8 °F 71% 30.31 in 10.0 mi WNW 9.2 mph - N/A   Clear
3:15 AM -7.6 °F -23.4 °F -14.8 °F 71% 30.31 in 10.0 mi WNW 8.1 mph - N/A   Clear
3:35 AM -7.6 °F -25.7 °F -14.8 °F 71% 30.30 in 10.0 mi WNW 10.4 mph - N/A   Partly Cloudy
3:55 AM -7.6 °F -24.6 °F -14.8 °F 71% 30.30 in 10.0 mi WNW 9.2 mph - N/A   Clear
4:15 AM -7.6 °F -24.6 °F -14.8 °F 71% 30.28 in 10.0 mi WNW 9.2 mph - N/A   Clear
4:35 AM -7.6 °F -25.7 °F -14.8 °F 71% 30.28 in 10.0 mi WNW 10.4 mph 16.1 mph N/A   Mostly Cloudy
4:55 AM -5.8 °F -23.4 °F -13.0 °F 71% 30.27 in 10.0 mi WNW 10.4 mph - N/A   Overcast
5:15 AM -5.8 °F -21.2 °F -13.0 °F 71% 30.27 in 10.0 mi WNW 8.1 mph 16.1 mph N/A   Overcast
5:35 AM -4.0 °F -17.8 °F -13.0 °F 65% 30.26 in 10.0 mi West 6.9 mph - N/A   Overcast
5:55 AM -4.0 °F -20.2 °F -11.2 °F 71% 30.26 in 10.0 mi West 9.2 mph - N/A   Overcast
6:15 AM -2.2 °F -18.0 °F -9.4 °F 71% 30.25 in 10.0 mi WNW 9.2 mph - N/A   Overcast
6:35 AM -2.2 °F -19.9 °F -9.4 °F 71% 30.24 in 10.0 mi West 11.5 mph - N/A Snow Light Snow
6:55 AM -0.4 °F -14.7 °F -7.6 °F 72% 30.23 in 10.0 mi WNW 8.1 mph - N/A   Overcast
7:15 AM -0.4 °F -13.4 °F -7.6 °F 72% 30.23 in 10.0 mi West 6.9 mph - N/A   Overcast
7:35 AM -0.4 °F -12.0 °F -7.6 °F 72% 30.23 in 10.0 mi West 5.8 mph - N/A   Overcast
7:55 AM -0.4 °F -13.4 °F -5.8 °F 78% 30.22 in 10.0 mi WNW 6.9 mph - N/A   Overcast
8:15 AM 1.4 °F -14.5 °F -4.0 °F 78% 30.22 in 10.0 mi WNW 10.4 mph - N/A   Overcast
8:35 AM 5.0 °F -14.2 °F -4.0 °F 66% 30.22 in 10.0 mi WNW 17.3 mph 21.9 mph N/A   Overcast
8:55 AM 5.0 °F -9.1 °F -2.2 °F 72% 30.21 in 10.0 mi WNW 9.2 mph - N/A   Overcast
9:15 AM 5.0 °F -8.1 °F -2.2 °F 72% 30.21 in 10.0 mi WNW 8.1 mph - N/A   Overcast
9:35 AM 5.0 °F -9.1 °F -2.2 °F 72% 30.20 in 10.0 mi NW 9.2 mph 17.3 mph N/A   Overcast
9:55 AM 5.0 °F -8.1 °F -2.2 °F 72% 30.19 in 10.0 mi WNW 8.1 mph - N/A   Overcast
10:15 AM 5.0 °F -13.6 °F -2.2 °F 72% 30.18 in 10.0 mi West 16.1 mph 26.5 mph N/A   Overcast
10:35 AM 6.8 °F -8.6 °F -2.2 °F 67% 30.18 in 10.0 mi WNW 11.5 mph 18.4 mph N/A   Scattered Clouds
10:55 AM 6.8 °F -11.3 °F -2.2 °F 67% 30.18 in 10.0 mi WNW 16.1 mph 21.9 mph N/A   Partly Cloudy
11:15 AM 6.8 °F -10.0 °F -2.2 °F 67% 30.17 in 10.0 mi WNW 13.8 mph 25.3 mph N/A   Clear
11:35 AM 6.8 °F -10.7 °F -2.2 °F 67% 30.16 in 10.0 mi WNW 15.0 mph 23.0 mph N/A   Clear
11:55 AM 6.8 °F -12.9 °F -2.2 °F 67% 30.15 in 10.0 mi WNW 19.6 mph 31.1 mph N/A   Clear
12:15 PM 6.8 °F -11.8 °F -2.2 °F 67% 30.14 in 10.0 mi WNW 17.3 mph 27.6 mph N/A   Mostly Cloudy
12:35 PM 6.8 °F -11.3 °F -2.2 °F 67% 30.13 in 10.0 mi West 16.1 mph 26.5 mph N/A   Overcast
12:55 PM 6.8 °F -14.7 °F -4.0 °F 61% 30.12 in 10.0 mi West 24.2 mph 33.4 mph N/A   Overcast
1:15 PM 6.8 °F -12.4 °F -2.2 °F 67% 30.12 in 10.0 mi WNW 18.4 mph 32.2 mph N/A   Overcast
1:35 PM 6.8 °F -14.3 °F -2.2 °F 67% 30.10 in 10.0 mi West 23.0 mph 36.8 mph N/A   Overcast
1:55 PM 6.8 °F -12.4 °F -2.2 °F 67% 30.10 in 10.0 mi West 18.4 mph 32.2 mph N/A   Overcast
2:15 PM 6.8 °F -12.9 °F -2.2 °F 67% 30.10 in 10.0 mi West 19.6 mph 33.4 mph N/A   Overcast
2:35 PM 6.8 °F -11.3 °F -2.2 °F 67% 30.09 in 10.0 mi West 16.1 mph 29.9 mph N/A   Overcast
2:55 PM 6.8 °F -12.4 °F -2.2 °F 67% 30.07 in 10.0 mi WNW 18.4 mph 31.1 mph N/A   Overcast
3:15 PM 6.8 °F -12.9 °F -2.2 °F 67% 30.07 in 10.0 mi West 19.6 mph 27.6 mph N/A   Overcast
3:35 PM 6.8 °F -12.4 °F -2.2 °F 67% 30.07 in 10.0 mi West 18.4 mph 29.9 mph N/A   Mostly Cloudy
3:55 PM 6.8 °F -11.8 °F -4.0 °F 61% 30.06 in 10.0 mi West 17.3 mph 25.3 mph N/A   Mostly Cloudy
4:15 PM 6.8 °F -10.7 °F -4.0 °F 61% 30.06 in 10.0 mi West 15.0 mph 24.2 mph N/A   Partly Cloudy
4:35 PM 6.8 °F -11.3 °F -4.0 °F 61% 30.04 in 10.0 mi West 16.1 mph 23.0 mph N/A   Clear
4:55 PM 6.8 °F -8.6 °F -4.0 °F 61% 30.03 in 10.0 mi West 11.5 mph 19.6 mph N/A   Clear
5:15 PM 5.0 °F -5.6 °F -4.0 °F 66% 30.02 in 10.0 mi WSW 5.8 mph - N/A   Clear
5:35 PM 5.0 °F -10.0 °F -4.0 °F 66% 30.01 in 10.0 mi West 10.4 mph - N/A   Clear
5:55 PM 5.0 °F -9.1 °F -4.0 °F 66% 30.01 in - WSW 9.2 mph - N/A   Clear
6:15 PM 3.2 °F -15.9 °F -4.0 °F 72% 30.00 in - West 16.1 mph 21.9 mph N/A   Clear
6:35 PM 1.4 °F -18.8 °F -4.0 °F 78% 29.99 in - West 17.3 mph 28.8 mph N/A   Clear
6:55 PM 1.4 °F -19.9 °F -5.8 °F 72% 29.98 in - West 19.6 mph 29.9 mph N/A   Clear
7:15 PM 1.4 °F -16.1 °F -7.6 °F 66% 29.97 in 10.0 mi West 12.7 mph 21.9 mph N/A   Clear
7:35 PM 1.4 °F -21.4 °F -7.6 °F 66% 29.94 in - West 23.0 mph 29.9 mph N/A   Clear
7:55 PM 1.4 °F -21.0 °F -5.8 °F 72% 29.91 in - West 21.9 mph 38.0 mph N/A   Clear
8:15 PM 1.4 °F -17.6 °F -5.8 °F 72% 29.92 in 10.0 mi West 15.0 mph 33.4 mph N/A   Clear
8:35 PM 3.2 °F -12.2 °F -5.8 °F 66% 29.92 in 10.0 mi West 10.4 mph 18.4 mph N/A   Clear
8:55 PM 3.2 °F -13.9 °F -5.8 °F 66% 29.92 in 10.0 mi West 12.7 mph 26.5 mph N/A   Clear
9:15 PM 1.4 °F -17.6 °F -5.8 °F 72% 29.92 in 10.0 mi West 15.0 mph 26.5 mph N/A   Clear
9:35 PM 3.2 °F -16.5 °F -5.8 °F 66% 29.90 in 10.0 mi West 17.3 mph 28.8 mph N/A   Clear
9:55 PM 3.2 °F -17.6 °F -7.6 °F 61% 29.90 in 10.0 mi West 19.6 mph 27.6 mph N/A   Clear
10:15 PM 3.2 °F -20.3 °F -5.8 °F 66% 29.88 in 10.0 mi West 26.5 mph 38.0 mph N/A   Clear
10:35 PM 3.2 °F -18.6 °F -5.8 °F 66% 29.88 in 10.0 mi West 21.9 mph 39.1 mph N/A   Clear
10:55 PM 3.2 °F -18.6 °F -5.8 °F 66% 29.89 in 10.0 mi West 21.9 mph 32.2 mph N/A   Clear
11:15 PM 3.2 °F -18.1 °F -5.8 °F 66% 29.88 in 10.0 mi West 20.7 mph 34.5 mph N/A   Clear
11:35 PM 3.2 °F -16.5 °F -7.6 °F 61% 29.89 in 10.0 mi West 17.3 mph 27.6 mph N/A   Clear
11:55 PM 3.2 °F -17.6 °F -7.6 °F 61% 29.88 in 10.0 mi West 19.6 mph 27.6 mph N/A   Clear